Weather Roundup
Issued by NWS Chicago, IL

Home | Current Version | Previous Version | Graphics & Text | Print | Product List | Glossary On
Versions: 1 2 3 4 5 6 7 8 9 10 11 12 13 14 15 16 17 18 19 20 21 22 23 24 25 26 27 28 29 30 31 32 33 34 35 36 37 38 39 40 41 42 43 44 45 46 47 48 49 50
000
NZUS59 KLOT 272104
HRRLOT

CHICAGO AREA WEATHER ROUNDUP
NATIONAL WEATHER SERVICE CHICAGO/ROMEOVILLE IL
400 PM CDT THU JUL 27 2017

NOTE: "FAIR" INDICATES FEW OR NO CLOUDS BELOW 12,000 FEET WITH NO
SIGNIFICANT WEATHER AND/OR OBSTRUCTIONS TO VISIBILITY.

* THESE STATIONS ARE NOT UNDER NWS QUALITY CONTROL. THEY ALSO MAY NOT
  REPORT WEATHER SUCH AS PRECIPITATION OR FOG.

ILZ005-006-012>014-019>023-272200-
NORTHEAST ILLINOIS

CITY           SKY/WX    TMP DP  RH WIND       PRES   REMARKS
OHARE          MOSUNNY   80  60  50 NE21G26   29.94S HX  81
MIDWAY         MOSUNNY   81  69  67 N15       29.93S HX  84
AURORA         MOSUNNY   82  64  54 N16       29.94S HX  83
LANSING*       CLOUDY    73  67  81 N10G17    29.94S
JOLIET*        PTSUNNY   83  71  66 NE10G17   29.91F HX  88
WAUKEGAN       SUNNY     78  59  51 N16G23    29.95F
DUPAGE AIRPORT MOSUNNY   82  59  45 NE18      29.94S HX  82
WHEELING       SUNNY     79  62  56 N17       29.96F HX  80
MORRIS*        PTSUNNY   82  70  66 N5        29.90F HX  86
LEWIS AIRPORT* MOSUNNY   82  67  60 NE16      29.92S HX  84
NORTHERLY ISL    N/A     74  65  73 NW16        N/A
$$

WIZ051-052-058>065-066-070>072-272200-
SOUTHEAST WISCONSIN

CITY           SKY/WX    TMP DP  RH WIND       PRES   REMARKS
MILWAUKEE      MOSUNNY   77  59  53 N20G25    29.98F
KENOSHA*       SUNNY     79  58  48 N16G25    29.98S HX  80
RACINE*        SUNNY     76  64  66 N16G23    30.00S
WAUKESHA       MOSUNNY   79  55  44 N12G18    30.00F
$$

INZ001>003-010>013-019-020-272200-
NORTHWEST INDIANA

CITY           SKY/WX    TMP DP  RH WIND       PRES   REMARKS
GARY*          CLOUDY    75  70  83 N14       29.94S
MICHIGAN CITY* NOT AVBL
RENSSELAER*    NOT AVBL
VALPARAISO     CLOUDY    78  71  79 N13       29.92S HX  80
$$

LMZ740>746-272200-
SOUTHERN LAKE MICHIGAN

STATION/POSITION TIME  SKY/WX   TEMP WIND        PRES    VSBY
                                AIR  DIR/SP/G
                 (UTC)          (F)  (DEG/KT/KT) (MB)    (MI)
HARRISON CRIB    2040            72  350/ 22/ 23   N/A
BURNHAM HARBOR   2100            74                N/A
CALUMET HARBOR   2030            72  340/ 13/ 19 1013.6R
BURNS HARBOR     2040            73  360/ 14/ 16 1013.9S
MICHIGAN CITY    2040            74  350/ 17/ 19   N/A
$$

ABBREVIATIONS USED IN REMARKS
   TC - TEMPERATURE IN CELSIUS
  WCI - WIND CHILL INDEX
   HX - HEAT INDEX
  VSB - VISIBILITY
$$



USA.gov is the U.S. government's official web portal to all federal, state and local government web resources and services.